Regional Weather Roundup
Issued by NWS

Home | Current Version | Previous Version | Graphics & Text | Print | Product List | Glossary On
Versions: 1 2 3 4 5 6 7 8 9 10 11 12 13 14 15 16 17 18 19 20 21 22 23 24 25 26 27 28
000
ASUS45 KCYS 260710
RWRWY

WYOMING REGIONAL WEATHER ROUNDUP
NATIONAL WEATHER SERVICE CHEYENNE WY
100 AM MDT THU APR 26 2018

NOTE:  "FAIR" INDICATES FEW OR NO CLOUDS BELOW 12,000 FEET
WITH NO SIGNIFICANT WEATHER AND/OR OBSTRUCTIONS TO VISIBILITY.

WYZ001-260800-
YELLOWSTONE NATIONAL PARK

CITY           SKY/WX    TMP DP  RH WIND       PRES   REMARKS
LK YELLOWSTONE   N/A     27  24  89 CALM      30.32R
W YELLOWSTONE  NOT AVBL

$$
WYZ002>013-054>058-071-098>099-260800-
NORTHERN WYOMING

CITY           SKY/WX    TMP DP  RH WIND       PRES   REMARKS
JACKSON        FAIR      39  26  59 N10       30.24R WCI  32
CODY           FAIR      41  34  76 NW5       30.28R
GREYBULL       FAIR      43  37  79 NW16      30.22R
WORLAND        FAIR      44  37  76 NW10      30.24R
SHERIDAN       CLOUDY    46  36  68 NW16      30.23R
BUFFALO        MOCLDY    45  32  60 NW25G33   30.21R
GILLETTE       CLOUDY    48  31  51 NW20      30.14R
HULETT         CLOUDY    46  32  57 MISG      30.14R
NEWCASTLE      FAIR      46  27  46 NW14G23   30.07R

$$
WYZ014>020-022>026-101>103-260800-
CENTRAL WYOMING

CITY           SKY/WX    TMP DP  RH WIND       PRES   REMARKS
BIG PINEY      FAIR      34  18  52 N12       30.23R WCI  25
PINEDALE       FAIR      34  23  64 NW5       30.24R WCI  30
DUBOIS         FAIR      32  25  74 SW3       30.23R
LANDER         CLOUDY    45  31  58 NW7       30.25R
RIVERTON       CLOUDY    42  32  67 N25G36    30.23R
CASPER         CLOUDY    44  29  55 NE13      30.21R
DOUGLAS        CLOUDY    47  28  47 NW20G26   30.16R

$$
WYZ021-027>030-104>119-260800-
SOUTHERN WYOMING

CITY           SKY/WX    TMP DP  RH WIND       PRES   REMARKS
EVANSTON       FAIR      45  20  36 SE6       30.25R
KEMMERER       FAIR      37  27  65 CALM      30.26R
FORT BRIDGER   FAIR      42  19  40 W9        30.29R
ROCK SPRINGS   FAIR      43  15  32 NE10      30.24R
DIXON          FAIR      38  18  44 E3        30.19R
RAWLINS        CLOUDY    44  21  40 N12       30.20R
SARATOGA       FAIR      43  18  36 N15       30.18R
LARAMIE        FAIR      41  18  39 NE12      30.12R
CHEYENNE       FAIR      47  22  37 N20G33    30.08R
TORRINGTON     FAIR      53  29  39 N9G24     30.01R
PINE BLUFFS    FAIR      43  27  52 NW9       30.04S

$$




USA.gov is the U.S. government's official web portal to all federal, state and local government web resources and services.